Regional Weather Roundup
Issued by NWS Charleston, WV

Home | Current Version | Previous Version | Graphics & Text | Print | Product List | Glossary On
Versions: 1 2 3 4 5 6 7 8 9 10 11 12 13 14 15 16 17 18 19 20 21 22 23 24 25 26 27 28 29 30 31 32 33 34 35 36 37 38 39 40 41 42 43 44 45 46 47 48 49 50
000
ASUS41 KRLX 030410
RWRRLX
West Virginia Regional Weather Roundup
National Weather Service Charleston WV
1200 AM EDT SUN MAY 03 2015

Note: "fair" indicates few or no clouds below 12,000 feet with no
significant weather and/or obstructions to visibility.

WVZ003-030500-
Northern Panhandle of West Virginia

CITY           SKY/WX    TMP DP  RH WIND       PRES   REMARKS
WHEELING       MOCLDY    61  39  44 SW3       30.07R
$$

WVZ009-030500-
Northwest West Virginia

CITY           SKY/WX    TMP DP  RH WIND       PRES   REMARKS
PARKERSBURG    CLEAR     53  43  68 CALM      30.11R
$$

WVZ006-030500-
Western West Virginia

CITY           SKY/WX    TMP DP  RH WIND       PRES   REMARKS
HUNTINGTON     CLEAR     55  43  63 CALM      30.09S
$$

WVZ015-030500-
West Central West Virginia

CITY           SKY/WX    TMP DP  RH WIND       PRES   REMARKS
CHARLESTON     CLEAR     53  40  61 CALM      30.10S
$$

WVZ022-031-030500-
North Central West Virginia

CITY           SKY/WX    TMP DP  RH WIND       PRES   REMARKS
CLARKSBURG     CLEAR     52  43  71 CALM      30.08S
MORGANTOWN       N/A     55  39  54 S3        30.09R
$$

WVZ025-035-042-045-030500-
Southern West Virginia

CITY           SKY/WX    TMP DP  RH WIND       PRES   REMARKS
BECKLEY        CLEAR     48  35  60 S6        30.15S
LOGAN            N/A     57  37  47 CALM      30.10R
BLUEFIELD      CLEAR     56  32  40 SW5       30.17S
LEWISBURG      CLEAR     50  36  58 CALM      30.14S
$$

WVZ047-030500-
Northern Mountains of West Virginia

CITY           SKY/WX    TMP DP  RH WIND       PRES   REMARKS
ELKINS         CLEAR     42  38  85 CALM      30.13R
$$

WVZ052-030500-
Eastern Panhandle of West Virginia

CITY           SKY/WX    TMP DP  RH WIND       PRES   REMARKS
MARTINSBURG    CLEAR     53  41  63 SW3       30.03S
PETERSBURG     CLEAR     48  41  77 CALM      30.10R
$$


USA.gov is the U.S. government's official web portal to all federal, state and local government web resources and services.